Regional Weather Roundup
Issued by NWS

Home | Current Version | Previous Version | Text Only | Print | Product List | Glossary Off
Versions: 1 2 3 4 5 6 7 8 9 10 11 12 13 14 15 16 17 18 19 20 21 22 23 24 25 26 27 28 29 30 31 32 33 34 35 36 37 38 39 40 41 42 43 44 45 46 47 48 49 50

000
ASUS45 KBOU 260807
RWRCO

WEATHER ROUNDUP FOR COLORADO
NATIONAL WEATHER SERVICE DENVER/BOULDER CO
200 AM MDT THU MAR 26 2015

NOTE: "FAIR" INDICATES FEW OR NO CLOUDS BELOW 12000 FEET WITH NO
SIGNIFICANT WEATHER AND/OR OBSTRUCTIONS TO VISIBILITY.

COZ001>005-013-030-031-260900-
...NORTHWEST COLORADO...

CITY           SKY/WX    TMP DP  RH WIND       PRES   REMARKS
CRAIG          CLEAR     29  19  66 W3        30.35R
HAYDEN         CLEAR     28  18  64 W6        30.34R WCI  22
MEEKER         CLEAR     29  19  66 E8        30.35F WCI  21
MOUNT WERNER   NOT AVBL
STEAMBOAT SPGS CLEAR     24  21  91 CALM      30.34R
WALDEN         CLEAR     21  16  79 CALM      30.28R
$$

COZ006>008-011-260900-
...WEST CENTRAL VALLEYS...

CITY           SKY/WX    TMP DP  RH WIND       PRES   REMARKS
GRAND JUNCTION CLEAR     34  16  47 E6        30.32S WCI  29
MONTROSE       CLEAR     31  18  58 SE9       30.36S WCI  23
EAGLE          PTCLDY    25  19  80 E5        30.38R WCI  19
RIFLE          CLEAR     28  18  66 SE3       30.35F
DELTA          CLEAR     35  16  45 E5        30.35S WCI  31
NUCLA          NOT AVBL
$$

COZ017>023-064>068-260900-
...SOUTHWEST COLORADO...

CITY           SKY/WX    TMP DP  RH WIND       PRES   REMARKS
DURANGO        CLEAR     28  14  55 CALM      30.25R
CORTEZ         CLEAR     34  12  40 E8        30.30S WCI  27
PAGOSA SPRINGS CLEAR     31  10  41 NW3       30.27S
TELLURIDE      CLEAR     25  12  57 CALM      30.37S
WOLF CREEK PAS CLEAR     16  -6  38 N12       30.34S WCI   3
$$

COZ009-010-012-014-032>034-037-058>063-260900-
...CENTRAL COLORADO...

CITY           SKY/WX    TMP DP  RH WIND       PRES   REMARKS
ASPEN          PTCLDY    23  15  71 SW8       30.34F WCI  14
BUENA VISTA    CLEAR     29   9  42 NW13G20   30.27S WCI  19
COPPER MTN     PTCLDY    18   9  68 W23       30.28F WCI   0
BERTHOUD PASS  LGT SNOW   9   1  72 MISG      30.19F VSB 3/4
COTTONWOOD PAS CLEAR     28   7  40 W13G22    30.26S WCI  18
GUNNISON       CLEAR     23  14  68 CALM      30.36S
KREMMLING      PTCLDY    23  19  86 CALM      30.33S
LEADVILLE      CLEAR     12   5  73 NE8       30.29F WCI   0
SALIDA         CLEAR     24  20  86 W6        30.35S WCI  17
SUNLIGHT       CLEAR     21  14  73 CALM      30.38F
WILKERSON PASS CLOUDY    16   9  73 NW12G24   30.26S WCI   3
$$

COZ069>075-260900-
...SAN LUIS VALLEY/SANGRE DE CRISTO MOUNTAINS...

CITY           SKY/WX    TMP DP  RH WIND       PRES   REMARKS
ALAMOSA        PTCLDY    20  14  77 CALM      30.28S
LA VETA PASS   PTCLDY    19  12  73 CALM      30.25F
SAGUACHE       CLEAR     30  10  43 N12       30.28F WCI  21
$$

COZ035-036-038>040-260900-
...NORTHERN COLORADO FRONT RANGE...

CITY           SKY/WX    TMP DP  RH WIND       PRES   REMARKS
DENVER INTL AP PTCLDY    33  27  78 S13       30.20F WCI  24
DMNS CITY PARK   N/A     34  25  70 SW8G14    30.21S WCI  27
AURORA         PTCLDY    32  25  77 S12       30.21F WCI  23
FRONT RANGE AP CLEAR     34  30  86 S10G18    30.20F WCI  26
ERIE MUNI ARPT PTCLDY    34  30  85 S3        30.20S
BOULDER MUN AP PTCLDY    32  30  93 N3        30.20R
CENTENNIAL     PTCLDY    31  24  75 SW13      30.21F WCI  21
BROOMFIELD     PTCLDY    34  30  86 SW3       30.20S
FORT COLLINS   PTCLDY    30  28  93 N6        30.23R WCI  24
LONGMONT       PTCLDY    32  30  93 CALM      30.23R
$$

COZ041-046-047-076>085-087-088-260900-
...PIKES PEAK/PALMER DIVIDE AND SOUTHERN FOOTHILLS...

CITY           SKY/WX    TMP DP  RH WIND       PRES   REMARKS
COLO. SPRINGS  MOCLDY    26  21  81 N7        30.24F WCI  18
A. F. ACADEMY  PTCLDY    21  17  87 N12       30.22F WCI   9
ELLICOTT       CLEAR    N/A N/A N/A CALM      30.23F
FALCON         CLEAR     23  20  89 NW7       30.24F WCI  14
FORT CARSON    PTCLDY    26  21  81 N8        30.23F WCI  18
LIMON          CLEAR     27  24  89 CALM      30.23F
MONUMENT HILL  CLEAR     23  19  86 S8        30.21F WCI  14
TRINIDAD       CLEAR     28  23  81 SW16      30.27F WCI  16
$$

COZ042>045-048>051-090-091-260900-
...NORTHEAST COLORADO...

CITY           SKY/WX    TMP DP  RH WIND       PRES   REMARKS
GREELEY ARPT   PTCLDY    28  21  74 N7        30.22R WCI  21
AKRON          PTCLDY    32  30  92 SW10      30.20F WCI  24
BURLINGTON     CLEAR     28  24  85 W9        30.23F WCI  19
WRAY           PTCLDY    30  28  91 W5        30.23S WCI  25
STERLING       PTCLDY    30  30 100 SE3       30.21S
HOLYOKE        PTCLDY    28  23  80 S5        30.21S WCI  23
FORT MORGAN    PTCLDY    31  29  92 W6        30.22S WCI  26
$$

COZ086-089-092>099-260900-
...SOUTHEAST COLORADO...

CITY           SKY/WX    TMP DP  RH WIND       PRES   REMARKS
PUEBLO         CLEAR     29  27  92 CALM      30.26F
LA JUNTA       CLEAR     32  29  88 W9        30.27S WCI  24
LAMAR          CLEAR     29  28  96 SW8       30.25F WCI  21
SPRINGFIELD      N/A     29  28  96 W8        30.26S WCI  21
$$


USA.gov is the U.S. government's official web portal to all federal, state and local government web resources and services.